Time,TemperatureF,DewpointF,PressureIn,WindDirection,WindDirectionDegrees,WindSpeedMPH,WindSpeedGustMPH,Humidity,HourlyPrecipIn,Conditions,Clouds,dailyrainin,SoftwareType,DateUTC
2013-04-17 00:01:00,75.0,72.9,30.03,SE,128,4.0,10.0,93,0.00,,,0.01,meteohub,2013-04-17 05:01:00,
2013-04-17 00:06:00,75.0,72.9,30.03,SSE,162,2.0,10.0,93,0.00,,,0.00,meteohub,2013-04-17 05:06:00,
2013-04-17 00:11:00,75.0,72.9,30.03,SE,136,5.0,11.0,93,0.00,,,0.00,meteohub,2013-04-17 05:11:00,
2013-04-17 00:16:00,74.8,72.7,30.03,SE,127,3.0,11.0,93,0.00,,,0.00,meteohub,2013-04-17 05:16:00,
2013-04-17 00:21:00,74.8,72.7,30.03,SE,130,2.0,10.0,93,0.00,,,0.00,meteohub,2013-04-17 05:21:00,
2013-04-17 00:26:00,74.8,72.7,30.03,ESE,123,3.0,7.0,93,0.00,,,0.00,meteohub,2013-04-17 05:26:00,
2013-04-17 00:32:00,74.8,73.0,30.03,NE,53,4.0,8.0,94,0.00,,,0.00,meteohub,2013-04-17 05:32:00,
2013-04-17 00:37:00,74.7,72.9,30.03,SE,133,3.0,8.0,94,0.00,,,0.00,meteohub,2013-04-17 05:37:00,
2013-04-17 00:42:00,74.7,72.9,30.02,SE,124,6.0,9.0,94,0.00,,,0.00,meteohub,2013-04-17 05:42:00,
2013-04-17 00:47:00,74.7,72.9,30.02,SE,143,6.0,10.0,94,0.00,,,0.00,meteohub,2013-04-17 05:47:00,
2013-04-17 00:52:00,74.7,72.9,30.02,SE,128,0.0,10.0,94,0.00,,,0.00,meteohub,2013-04-17 05:52:00,
2013-04-17 00:57:00,74.7,72.9,30.02,SSE,157,2.0,10.0,94,0.00,,,0.00,meteohub,2013-04-17 05:57:00,
2013-04-17 01:02:00,74.5,72.7,30.01,East,86,3.0,8.0,94,0.00,,,0.00,meteohub,2013-04-17 06:02:00,
2013-04-17 01:07:00,74.5,72.7,30.01,ESE,113,0.0,9.0,94,0.00,,,0.00,meteohub,2013-04-17 06:07:00,
2013-04-17 01:12:00,74.3,72.5,30.01,SSE,148,2.0,9.0,94,0.00,,,0.00,meteohub,2013-04-17 06:12:00,
2013-04-17 01:17:00,74.1,72.7,30.01,East,92,5.0,6.0,95,0.00,,,0.00,meteohub,2013-04-17 06:17:00,
2013-04-17 01:22:00,74.1,72.7,30.01,ESE,117,2.0,8.0,95,0.00,,,0.00,meteohub,2013-04-17 06:22:00,
2013-04-17 01:27:00,74.1,72.7,30.02,NE,42,2.0,8.0,95,0.00,,,0.00,meteohub,2013-04-17 06:27:00,
2013-04-17 01:32:00,74.1,72.7,30.02,ESE,120,3.0,10.0,95,0.00,,,0.00,meteohub,2013-04-17 06:32:00,
2013-04-17 01:37:00,74.1,72.7,30.02,ESE,117,3.0,10.0,95,0.00,,,0.00,meteohub,2013-04-17 06:37:00,
2013-04-17 01:42:00,74.1,72.7,30.02,East,99,1.0,10.0,95,0.00,,,0.00,meteohub,2013-04-17 06:42:00,
2013-04-17 01:47:00,74.1,72.7,30.02,SE,126,1.0,9.0,95,0.00,,,0.00,meteohub,2013-04-17 06:47:00,
2013-04-17 01:52:00,74.1,72.7,30.02,SE,133,0.0,8.0,95,0.00,,,0.00,meteohub,2013-04-17 06:52:00,
2013-04-17 01:57:00,74.1,72.3,30.01,SSE,148,1.0,8.0,94,0.00,,,0.00,meteohub,2013-04-17 06:57:00,
2013-04-17 02:02:00,74.1,72.3,30.01,SE,129,3.0,7.0,94,0.00,,,0.00,meteohub,2013-04-17 07:02:00,
2013-04-17 02:07:00,74.1,72.3,30.01,East,99,2.0,9.0,94,0.00,,,0.00,meteohub,2013-04-17 07:07:00,
2013-04-17 02:12:00,74.3,72.5,30.01,ESE,109,3.0,9.0,94,0.00,,,0.00,meteohub,2013-04-17 07:12:00,
2013-04-17 02:17:00,74.3,72.5,30.01,SSE,153,3.0,8.0,94,0.00,,,0.00,meteohub,2013-04-17 07:17:00,
2013-04-17 02:22:00,74.5,72.7,30.01,ESE,120,3.0,7.0,94,0.00,,,0.00,meteohub,2013-04-17 07:22:00,
2013-04-17 02:27:00,74.5,72.3,30.00,ESE,117,4.0,7.0,93,0.00,,,0.00,meteohub,2013-04-17 07:27:00,
2013-04-17 02:32:00,74.5,72.3,30.00,SSE,165,4.0,9.0,93,0.00,,,0.00,meteohub,2013-04-17 07:32:00,
2013-04-17 02:37:00,74.3,72.5,29.99,SE,125,4.0,9.0,94,0.00,,,0.00,meteohub,2013-04-17 07:37:00,
2013-04-17 02:42:00,74.3,72.5,29.99,SE,141,1.0,8.0,94,0.00,,,0.00,meteohub,2013-04-17 07:42:00,
2013-04-17 02:47:00,74.3,72.5,29.99,SE,135,4.0,8.0,94,0.00,,,0.00,meteohub,2013-04-17 07:47:00,
2013-04-17 02:52:00,74.3,72.5,29.99,SE,130,4.0,9.0,94,0.00,,,0.00,meteohub,2013-04-17 07:52:00,
2013-04-17 02:57:00,74.3,72.5,29.99,SE,145,2.0,9.0,94,0.00,,,0.00,meteohub,2013-04-17 07:57:00,
2013-04-17 03:02:00,74.3,72.5,29.99,SE,128,2.0,9.0,94,0.00,,,0.00,meteohub,2013-04-17 08:02:00,
2013-04-17 03:07:00,74.3,72.5,29.99,East,96,3.0,8.0,94,0.00,,,0.00,meteohub,2013-04-17 08:07:00,
2013-04-17 03:12:00,74.3,72.5,29.98,South,173,2.0,9.0,94,0.00,,,0.00,meteohub,2013-04-17 08:12:00,
2013-04-17 03:17:00,74.1,72.3,29.99,SE,127,1.0,9.0,94,0.00,,,0.00,meteohub,2013-04-17 08:17:00,
2013-04-17 03:22:00,74.1,72.3,29.99,East,88,2.0,9.0,94,0.00,,,0.00,meteohub,2013-04-17 08:22:00,
2013-04-17 03:27:00,73.9,72.1,29.98,East,83,1.0,7.0,94,0.00,,,0.00,meteohub,2013-04-17 08:27:00,
2013-04-17 03:32:00,73.9,72.5,29.98,ESE,107,2.0,7.0,95,0.00,,,0.00,meteohub,2013-04-17 08:32:00,
2013-04-17 03:37:00,73.9,72.5,29.99,ENE,58,1.0,6.0,95,0.00,,,0.00,meteohub,2013-04-17 08:37:00,
2013-04-17 03:42:00,73.8,72.3,29.98,NE,53,4.0,6.0,95,0.00,,,0.00,meteohub,2013-04-17 08:42:00,
2013-04-17 03:47:00,73.8,72.3,29.98,ESE,109,1.0,6.0,95,0.00,,,0.00,meteohub,2013-04-17 08:47:00,
2013-04-17 03:52:00,73.8,72.3,29.99,SE,127,1.0,6.0,95,0.00,,,0.00,meteohub,2013-04-17 08:52:00,
2013-04-17 03:57:00,73.8,72.3,29.99,ESE,102,3.0,6.0,95,0.00,,,0.00,meteohub,2013-04-17 08:57:00,
2013-04-17 04:02:00,73.6,72.1,29.98,ESE,114,3.0,4.0,95,0.00,,,0.00,meteohub,2013-04-17 09:02:00,
2013-04-17 04:07:00,73.6,72.1,29.99,NE,53,0.0,4.0,95,0.00,,,0.00,meteohub,2013-04-17 09:07:00,
2013-04-17 04:12:00,73.6,72.3,29.99,SE,132,2.0,4.0,96,0.00,,,0.00,meteohub,2013-04-17 09:12:00,
2013-04-17 04:17:00,73.6,72.3,29.99,SE,132,2.0,4.0,96,0.00,,,0.00,meteohub,2013-04-17 09:17:00,
2013-04-17 04:22:00,73.6,72.3,29.98,ESE,121,3.0,4.0,96,0.00,,,0.00,meteohub,2013-04-17 09:22:00,
2013-04-17 04:27:00,73.6,72.3,29.98,SSE,168,2.0,5.0,96,0.00,,,0.00,meteohub,2013-04-17 09:27:00,
2013-04-17 04:32:00,73.6,72.3,29.98,East,80,5.0,5.0,96,0.00,,,0.00,meteohub,2013-04-17 09:32:00,
2013-04-17 04:37:00,73.6,72.3,29.98,ESE,111,2.0,7.0,96,0.00,,,0.00,meteohub,2013-04-17 09:37:00,
2013-04-17 04:42:00,73.4,72.1,29.98,SE,129,1.0,7.0,96,0.00,,,0.00,meteohub,2013-04-17 09:42:00,
2013-04-17 04:47:00,73.4,72.1,29.98,ENE,76,1.0,6.0,96,0.00,,,0.00,meteohub,2013-04-17 09:47:00,
2013-04-17 04:52:00,73.4,72.1,29.99,ESE,119,2.0,4.0,96,0.00,,,0.00,meteohub,2013-04-17 09:52:00,
2013-04-17 04:57:00,73.4,72.1,29.99,ENE,59,1.0,4.0,96,0.00,,,0.00,meteohub,2013-04-17 09:57:00,
2013-04-17 05:02:00,73.2,72.0,29.99,East,92,2.0,5.0,96,0.00,,,0.00,meteohub,2013-04-17 10:02:00,
2013-04-17 05:07:00,73.2,72.0,29.99,NE,56,3.0,6.0,96,0.00,,,0.00,meteohub,2013-04-17 10:07:00,
2013-04-17 05:12:00,73.2,72.0,29.99,SSE,147,2.0,6.0,96,0.00,,,0.00,meteohub,2013-04-17 10:12:00,
2013-04-17 05:17:00,73.2,72.0,29.99,SE,127,1.0,6.0,96,0.00,,,0.00,meteohub,2013-04-17 10:17:00,
2013-04-17 05:22:00,73.2,72.0,29.99,East,96,1.0,4.0,96,0.00,,,0.00,meteohub,2013-04-17 10:22:00,
2013-04-17 05:27:00,73.2,72.0,29.99,SSE,163,1.0,4.0,96,0.00,,,0.00,meteohub,2013-04-17 10:27:00,
2013-04-17 05:32:00,73.2,72.0,29.99,East,100,0.0,4.0,96,0.00,,,0.00,meteohub,2013-04-17 10:32:00,
2013-04-17 05:37:00,73.2,72.0,29.99,East,98,3.0,4.0,96,0.00,,,0.00,meteohub,2013-04-17 10:37:00,
2013-04-17 05:42:00,73.2,72.0,29.99,ESE,121,2.0,4.0,96,0.00,,,0.00,meteohub,2013-04-17 10:42:00,
2013-04-17 05:47:00,73.2,72.0,29.99,ESE,110,2.0,3.0,96,0.00,,,0.00,meteohub,2013-04-17 10:47:00,
2013-04-17 05:52:00,73.2,72.0,30.00,ENE,64,1.0,3.0,96,0.00,,,0.00,meteohub,2013-04-17 10:52:00,
2013-04-17 05:57:00,73.2,72.0,30.00,ENE,77,0.0,4.0,96,0.00,,,0.00,meteohub,2013-04-17 10:57:00,
2013-04-17 06:02:00,73.2,72.0,30.00,East,87,0.0,4.0,96,0.00,,,0.00,meteohub,2013-04-17 11:02:00,
2013-04-17 06:07:00,73.2,72.0,30.00,East,84,1.0,4.0,96,0.00,,,0.00,meteohub,2013-04-17 11:07:00,
2013-04-17 06:12:00,73.2,72.0,30.00,ENE,70,1.0,5.0,96,0.00,,,0.00,meteohub,2013-04-17 11:12:00,
2013-04-17 06:17:00,73.2,72.0,30.00,ENE,67,1.0,5.0,96,0.00,,,0.00,meteohub,2013-04-17 11:17:00,
2013-04-17 06:22:00,73.2,72.0,30.00,ENE,78,1.0,5.0,96,0.00,,,0.00,meteohub,2013-04-17 11:22:00,
2013-04-17 06:27:00,73.2,72.0,30.00,ENE,69,2.0,5.0,96,0.00,,,0.00,meteohub,2013-04-17 11:27:00,
2013-04-17 06:32:00,73.0,72.1,30.00,ESE,104,0.0,5.0,97,0.00,,,0.00,meteohub,2013-04-17 11:32:00,
2013-04-17 06:37:00,73.0,72.1,30.00,ENE,71,3.0,3.0,97,0.00,,,0.00,meteohub,2013-04-17 11:37:00,
2013-04-17 06:42:00,73.0,72.1,30.01,ENE,70,1.0,5.0,97,0.00,,,0.00,meteohub,2013-04-17 11:42:00,
2013-04-17 06:47:00,73.0,72.1,30.01,ESE,113,3.0,5.0,97,0.00,,,0.00,meteohub,2013-04-17 11:47:00,
2013-04-17 06:52:00,73.0,72.1,30.01,ESE,118,2.0,5.0,97,0.00,,,0.00,meteohub,2013-04-17 11:52:00,
2013-04-17 06:57:00,73.0,72.1,30.01,ESE,119,1.0,5.0,97,0.00,,,0.00,meteohub,2013-04-17 11:57:00,
2013-04-17 07:03:00,73.0,72.1,30.01,ESE,111,1.0,5.0,97,0.00,,,0.00,meteohub,2013-04-17 12:03:00,
2013-04-17 07:08:00,73.0,72.1,30.01,ESE,121,2.0,5.0,97,0.00,,,0.00,meteohub,2013-04-17 12:08:00,
2013-04-17 07:13:00,73.0,71.8,30.02,SE,129,1.0,5.0,96,0.00,,,0.00,meteohub,2013-04-17 12:13:00,
2013-04-17 07:18:00,73.0,71.8,30.02,ENE,76,1.0,5.0,96,0.00,,,0.00,meteohub,2013-04-17 12:18:00,
2013-04-17 07:23:00,73.0,71.8,30.02,ESE,122,0.0,5.0,96,0.00,,,0.00,meteohub,2013-04-17 12:23:00,
2013-04-17 07:28:00,73.2,72.0,30.02,East,96,1.0,4.0,96,0.00,,,0.00,meteohub,2013-04-17 12:28:00,
2013-04-17 07:33:00,73.2,72.0,30.03,SSE,151,0.0,4.0,96,0.00,,,0.00,meteohub,2013-04-17 12:33:00,
2013-04-17 07:38:00,73.2,72.0,30.03,ENE,61,3.0,4.0,96,0.00,,,0.00,meteohub,2013-04-17 12:38:00,
2013-04-17 07:43:00,73.4,72.1,30.03,ENE,61,1.0,5.0,96,0.00,,,0.00,meteohub,2013-04-17 12:43:00,
2013-04-17 07:48:00,73.6,72.3,30.03,ENE,61,1.0,5.0,96,0.00,,,0.00,meteohub,2013-04-17 12:48:00,
2013-04-17 07:53:00,73.6,72.3,30.03,NE,54,1.0,5.0,96,0.00,,,0.00,meteohub,2013-04-17 12:53:00,
2013-04-17 07:58:00,73.6,72.3,30.03,ENE,76,3.0,5.0,96,0.00,,,0.00,meteohub,2013-04-17 12:58:00,
2013-04-17 08:03:00,73.6,72.3,30.04,ENE,78,0.0,7.0,96,0.00,,,0.00,meteohub,2013-04-17 13:03:00,
2013-04-17 08:08:00,73.8,72.5,30.04,ENE,71,2.0,7.0,96,0.00,,,0.00,meteohub,2013-04-17 13:08:00,
2013-04-17 08:13:00,73.8,72.5,30.03,ENE,71,1.0,7.0,96,0.00,,,0.00,meteohub,2013-04-17 13:13:00,
2013-04-17 08:18:00,73.8,72.5,30.04,SSE,149,1.0,5.0,96,0.00,,,0.00,meteohub,2013-04-17 13:18:00,
2013-04-17 08:23:00,73.9,72.5,30.04,SE,145,0.0,5.0,95,0.00,,,0.00,meteohub,2013-04-17 13:23:00,
2013-04-17 08:28:00,73.9,72.5,30.04,ESE,110,2.0,4.0,95,0.00,,,0.00,meteohub,2013-04-17 13:28:00,
2013-04-17 08:33:00,74.1,72.7,30.04,SE,124,0.0,4.0,95,0.00,,,0.00,meteohub,2013-04-17 13:33:00,
2013-04-17 08:38:00,74.3,72.9,30.04,SE,124,1.0,4.0,95,0.00,,,0.00,meteohub,2013-04-17 13:38:00,
2013-04-17 08:43:00,74.5,72.7,30.04,ENE,71,1.0,5.0,94,0.00,,,0.00,meteohub,2013-04-17 13:43:00,
2013-04-17 08:48:00,74.7,72.9,30.04,ENE,59,5.0,5.0,94,0.00,,,0.00,meteohub,2013-04-17 13:48:00,
2013-04-17 08:53:00,74.8,72.7,30.04,East,84,7.0,7.0,93,0.00,,,0.00,meteohub,2013-04-17 13:53:00,
2013-04-17 08:58:00,75.0,72.9,30.04,ESE,103,2.0,10.0,93,0.00,,,0.00,meteohub,2013-04-17 13:58:00,
2013-04-17 09:03:00,75.2,73.0,30.04,ESE,113,2.0,10.0,93,0.00,,,0.00,meteohub,2013-04-17 14:03:00,
2013-04-17 09:08:00,75.4,73.2,30.04,ENE,74,4.0,10.0,93,0.00,,,0.00,meteohub,2013-04-17 14:08:00,
2013-04-17 09:13:00,75.6,73.0,30.04,ENE,76,4.0,8.0,92,0.00,,,0.00,meteohub,2013-04-17 14:13:00,
2013-04-17 09:18:00,75.6,73.0,30.04,ENE,74,1.0,7.0,92,0.00,,,0.00,meteohub,2013-04-17 14:18:00,
2013-04-17 09:23:00,75.7,73.2,30.04,South,175,1.0,8.0,92,0.00,,,0.00,meteohub,2013-04-17 14:23:00,
2013-04-17 09:28:00,76.5,73.2,30.04,ENE,76,2.0,8.0,90,0.00,,,0.00,meteohub,2013-04-17 14:28:00,
2013-04-17 09:33:00,77.0,73.2,30.04,SSE,150,3.0,8.0,88,0.00,,,0.00,meteohub,2013-04-17 14:33:00,
2013-04-17 09:38:00,77.4,73.2,30.04,East,82,1.0,8.0,87,0.00,,,0.00,meteohub,2013-04-17 14:38:00,
2013-04-17 09:43:00,77.7,73.6,30.04,ENE,61,5.0,8.0,87,0.00,,,0.00,meteohub,2013-04-17 14:43:00,
2013-04-17 09:48:00,78.3,73.4,30.04,ENE,61,2.0,8.0,85,0.00,,,0.00,meteohub,2013-04-17 14:48:00,
2013-04-17 09:53:00,78.4,73.6,30.04,ENE,61,5.0,9.0,85,0.00,,,0.00,meteohub,2013-04-17 14:53:00,
2013-04-17 09:58:00,78.3,73.4,30.04,East,90,2.0,9.0,85,0.00,,,0.00,meteohub,2013-04-17 14:58:00,
2013-04-17 10:03:00,78.3,73.4,30.04,East,96,2.0,11.0,85,0.00,,,0.00,meteohub,2013-04-17 15:03:00,
2013-04-17 10:08:00,78.3,73.0,30.04,East,101,3.0,11.0,84,0.00,,,0.00,meteohub,2013-04-17 15:08:00,
2013-04-17 10:13:00,78.4,72.9,30.04,East,97,7.0,12.0,83,0.00,,,0.00,meteohub,2013-04-17 15:13:00,
2013-04-17 10:18:00,79.0,73.4,30.04,East,84,6.0,12.0,83,0.00,,,0.00,meteohub,2013-04-17 15:18:00,
2013-04-17 10:23:00,79.2,73.2,30.04,East,98,3.0,12.0,82,0.00,,,0.00,meteohub,2013-04-17 15:23:00,
2013-04-17 10:28:00,79.3,73.4,30.04,ESE,120,0.0,11.0,82,0.00,,,0.00,meteohub,2013-04-17 15:28:00,
2013-04-17 10:33:00,79.5,73.2,30.04,SE,145,11.0,11.0,81,0.00,,,0.00,meteohub,2013-04-17 15:33:00,
2013-04-17 10:39:00,79.5,73.2,30.05,NE,55,7.0,12.0,81,0.00,,,0.00,meteohub,2013-04-17 15:39:00,
2013-04-17 10:44:00,79.5,73.2,30.05,South,175,6.0,12.0,81,0.00,,,0.00,meteohub,2013-04-17 15:44:00,
2013-04-17 10:49:00,79.9,72.9,30.05,ESE,107,3.0,12.0,79,0.00,,,0.00,meteohub,2013-04-17 15:49:00,
2013-04-17 10:54:00,80.2,73.0,30.05,East,98,1.0,12.0,79,0.00,,,0.00,meteohub,2013-04-17 15:54:00,
2013-04-17 10:59:00,80.4,72.9,30.05,East,96,2.0,12.0,78,0.00,,,0.00,meteohub,2013-04-17 15:59:00,
2013-04-17 11:04:00,80.4,72.5,30.05,East,98,7.0,9.0,77,0.00,,,0.00,meteohub,2013-04-17 16:04:00,
2013-04-17 11:09:00,80.8,72.9,30.05,SE,140,5.0,10.0,77,0.00,,,0.00,meteohub,2013-04-17 16:09:00,
2013-04-17 11:14:00,81.0,73.0,30.05,ESE,112,4.0,11.0,77,0.00,,,0.00,meteohub,2013-04-17 16:14:00,
2013-04-17 11:19:00,81.0,73.0,30.05,ENE,78,7.0,11.0,77,0.00,,,0.00,meteohub,2013-04-17 16:19:00,
2013-04-17 11:24:00,81.1,72.9,30.05,South,183,6.0,11.0,76,0.00,,,0.00,meteohub,2013-04-17 16:24:00,
2013-04-17 11:29:00,81.5,73.2,30.05,SE,138,7.0,12.0,76,0.00,,,0.00,meteohub,2013-04-17 16:29:00,
2013-04-17 11:34:00,81.9,73.2,30.04,ENE,75,7.0,14.0,75,0.00,,,0.00,meteohub,2013-04-17 16:34:00,
2013-04-17 11:39:00,82.0,73.4,30.04,WSW,239,6.0,14.0,75,0.00,,,0.00,meteohub,2013-04-17 16:39:00,
2013-04-17 11:44:00,82.6,73.8,30.04,SSE,148,7.0,14.0,75,0.00,,,0.00,meteohub,2013-04-17 16:44:00,
2013-04-17 11:49:00,82.8,73.2,30.04,SE,124,7.0,14.0,73,0.00,,,0.00,meteohub,2013-04-17 16:49:00,
2013-04-17 11:54:00,82.8,73.6,30.03,SE,128,5.0,14.0,74,0.00,,,0.00,meteohub,2013-04-17 16:54:00,
2013-04-17 11:59:00,82.6,73.8,30.03,ESE,107,3.0,11.0,75,0.00,,,0.00,meteohub,2013-04-17 16:59:00,
2013-04-17 12:04:00,82.2,73.9,30.03,East,90,3.0,11.0,76,0.00,,,0.00,meteohub,2013-04-17 17:04:00,
2013-04-17 12:09:00,82.9,74.7,30.03,SE,132,2.0,11.0,76,0.00,,,0.00,meteohub,2013-04-17 17:09:00,
2013-04-17 12:14:00,83.1,73.9,30.03,ESE,108,7.0,11.0,74,0.00,,,0.00,meteohub,2013-04-17 17:14:00,
2013-04-17 12:19:00,82.6,73.8,30.03,ESE,112,2.0,14.0,75,0.00,,,0.00,meteohub,2013-04-17 17:19:00,
2013-04-17 12:24:00,82.4,73.8,30.03,NE,49,4.0,14.0,75,0.00,,,0.00,meteohub,2013-04-17 17:24:00,
2013-04-17 12:29:00,82.0,73.8,30.02,ESE,119,2.0,14.0,76,0.00,,,0.00,meteohub,2013-04-17 17:29:00,
2013-04-17 12:34:00,82.2,73.9,30.02,SE,141,9.0,16.0,76,0.00,,,0.00,meteohub,2013-04-17 17:34:00,
2013-04-17 12:39:00,82.9,74.1,30.02,ESE,104,5.0,16.0,75,0.00,,,0.00,meteohub,2013-04-17 17:39:00,
2013-04-17 12:44:00,83.5,74.3,30.01,ESE,111,8.0,16.0,74,0.00,,,0.00,meteohub,2013-04-17 17:44:00,
2013-04-17 12:49:00,83.1,74.3,30.02,NE,41,3.0,14.0,75,0.00,,,0.00,meteohub,2013-04-17 17:49:00,
2013-04-17 12:54:00,82.9,74.1,30.02,East,92,3.0,14.0,75,0.00,,,0.00,meteohub,2013-04-17 17:54:00,
2013-04-17 12:59:00,82.8,74.5,30.02,SE,146,3.0,14.0,76,0.00,,,0.00,meteohub,2013-04-17 17:59:00,
2013-04-17 13:04:00,82.8,74.5,30.02,East,91,5.0,14.0,76,0.00,,,0.00,meteohub,2013-04-17 18:04:00,
2013-04-17 13:09:00,83.5,74.7,30.02,East,98,9.0,9.0,75,0.00,,,0.00,meteohub,2013-04-17 18:09:00,
2013-04-17 13:14:00,83.5,74.3,30.02,ESE,119,4.0,10.0,74,0.00,,,0.00,meteohub,2013-04-17 18:14:00,
2013-04-17 13:19:00,83.5,75.0,30.01,East,82,3.0,12.0,76,0.00,,,0.00,meteohub,2013-04-17 18:19:00,
2013-04-17 13:24:00,83.3,75.0,30.01,SE,132,4.0,12.0,76,0.00,,,0.00,meteohub,2013-04-17 18:24:00,
2013-04-17 13:29:00,83.5,75.0,30.01,SE,140,5.0,12.0,76,0.00,,,0.00,meteohub,2013-04-17 18:29:00,
2013-04-17 13:34:00,83.5,74.7,30.01,SE,138,4.0,11.0,75,0.00,,,0.00,meteohub,2013-04-17 18:34:00,
2013-04-17 13:39:00,83.5,74.3,30.00,ESE,115,8.0,11.0,74,0.00,,,0.00,meteohub,2013-04-17 18:39:00,
2013-04-17 13:44:00,83.7,74.8,30.00,ESE,119,2.0,12.0,75,0.00,,,0.00,meteohub,2013-04-17 18:44:00,
2013-04-17 13:49:00,83.7,74.8,30.00,SE,126,4.0,12.0,75,0.00,,,0.00,meteohub,2013-04-17 18:49:00,
2013-04-17 13:54:00,83.7,74.5,29.99,East,101,6.0,14.0,74,0.00,,,0.00,meteohub,2013-04-17 18:54:00,
2013-04-17 13:59:00,83.8,74.7,29.99,ESE,123,11.0,14.0,74,0.00,,,0.00,meteohub,2013-04-17 18:59:00,
2013-04-17 14:04:00,83.8,74.7,29.99,ESE,107,7.0,14.0,74,0.00,,,0.00,meteohub,2013-04-17 19:04:00,
2013-04-17 14:09:00,84.2,75.0,29.99,ESE,113,3.0,14.0,74,0.00,,,0.00,meteohub,2013-04-17 19:09:00,
2013-04-17 14:14:00,84.0,75.2,29.99,East,82,6.0,14.0,75,0.00,,,0.00,meteohub,2013-04-17 19:14:00,
2013-04-17 14:19:00,84.4,75.2,29.99,East,97,5.0,14.0,74,0.00,,,0.00,meteohub,2013-04-17 19:19:00,
2013-04-17 14:24:00,84.7,75.6,29.98,SSE,165,2.0,12.0,74,0.00,,,0.00,meteohub,2013-04-17 19:24:00,
2013-04-17 14:29:00,84.9,74.5,29.98,East,98,6.0,12.0,71,0.00,,,0.00,meteohub,2013-04-17 19:29:00,
2013-04-17 14:34:00,85.1,75.0,29.98,East,86,2.0,12.0,72,0.00,,,0.00,meteohub,2013-04-17 19:34:00,
2013-04-17 14:39:00,85.5,75.7,29.98,East,99,7.0,12.0,73,0.00,,,0.00,meteohub,2013-04-17 19:39:00,
2013-04-17 14:44:00,85.5,74.5,29.98,SE,134,6.0,9.0,70,0.00,,,0.00,meteohub,2013-04-17 19:44:00,
2013-04-17 14:49:00,85.8,74.5,29.98,SE,144,9.0,14.0,69,0.00,,,0.00,meteohub,2013-04-17 19:49:00,
2013-04-17 14:54:00,85.5,75.0,29.97,SSW,193,10.0,14.0,71,0.00,,,0.00,meteohub,2013-04-17 19:54:00,
2013-04-17 14:59:00,84.9,74.1,29.97,SE,139,5.0,13.0,70,0.00,,,0.00,meteohub,2013-04-17 19:59:00,
2013-04-17 15:04:00,84.9,74.1,29.97,East,100,8.0,13.0,70,0.00,,,0.00,meteohub,2013-04-17 20:04:00,
2013-04-17 15:09:00,84.6,74.5,29.97,SE,129,4.0,13.0,72,0.00,,,0.00,meteohub,2013-04-17 20:09:00,
2013-04-17 15:14:00,84.6,74.5,29.96,ESE,115,3.0,14.0,72,0.00,,,0.00,meteohub,2013-04-17 20:14:00,
2013-04-17 15:19:00,84.6,74.5,29.96,SSE,147,3.0,14.0,72,0.00,,,0.00,meteohub,2013-04-17 20:19:00,
2013-04-17 15:24:00,84.4,74.3,29.96,SSE,157,3.0,14.0,72,0.00,,,0.00,meteohub,2013-04-17 20:24:00,
2013-04-17 15:29:00,84.0,74.5,29.96,ESE,105,5.0,14.0,73,0.00,,,0.00,meteohub,2013-04-17 20:29:00,
2013-04-17 15:35:00,84.7,75.2,29.96,East,86,5.0,14.0,73,0.00,,,0.00,meteohub,2013-04-17 20:35:00,
2013-04-17 15:40:00,84.9,74.8,29.96,SE,129,3.0,13.0,72,0.00,,,0.00,meteohub,2013-04-17 20:40:00,
2013-04-17 15:45:00,84.7,74.3,29.96,West,281,3.0,13.0,71,0.00,,,0.00,meteohub,2013-04-17 20:45:00,
2013-04-17 15:50:00,84.6,74.5,29.96,ESE,123,9.0,12.0,72,0.00,,,0.00,meteohub,2013-04-17 20:50:00,
2013-04-17 15:55:00,84.0,73.9,29.95,SE,146,9.0,12.0,72,0.00,,,0.00,meteohub,2013-04-17 20:55:00,
2013-04-17 16:00:00,84.0,74.5,29.96,SE,134,1.0,12.0,73,0.00,,,0.00,meteohub,2013-04-17 21:00:00,
2013-04-17 16:05:00,85.1,75.0,29.95,SE,128,3.0,10.0,72,0.00,,,0.00,meteohub,2013-04-17 21:05:00,
2013-04-17 16:10:00,86.2,74.8,29.95,SE,133,8.0,10.0,69,0.00,,,0.00,meteohub,2013-04-17 21:10:00,
2013-04-17 16:15:00,85.6,74.7,29.94,ENE,73,4.0,12.0,70,0.00,,,0.00,meteohub,2013-04-17 21:15:00,
2013-04-17 16:20:00,85.3,74.8,29.94,SSE,165,3.0,13.0,71,0.00,,,0.00,meteohub,2013-04-17 21:20:00,
2013-04-17 16:25:00,85.3,74.8,29.94,SE,126,0.0,13.0,71,0.00,,,0.00,meteohub,2013-04-17 21:25:00,
2013-04-17 16:30:00,85.5,75.0,29.93,SSE,155,5.0,13.0,71,0.00,,,0.00,meteohub,2013-04-17 21:30:00,
2013-04-17 16:35:00,85.6,75.2,29.93,ESE,110,5.0,10.0,71,0.00,,,0.00,meteohub,2013-04-17 21:35:00,
2013-04-17 16:40:00,85.6,75.2,29.93,East,90,5.0,10.0,71,0.00,,,0.00,meteohub,2013-04-17 21:40:00,
2013-04-17 16:45:00,85.3,75.2,29.92,East,90,5.0,12.0,72,0.00,,,0.00,meteohub,2013-04-17 21:45:00,
2013-04-17 16:50:00,85.3,74.8,29.92,ESE,108,4.0,15.0,71,0.00,,,0.00,meteohub,2013-04-17 21:50:00,
2013-04-17 16:55:00,85.6,75.2,29.92,South,189,9.0,15.0,71,0.00,,,0.00,meteohub,2013-04-17 21:55:00,
2013-04-17 17:00:00,85.5,74.5,29.92,SSE,150,4.0,12.0,70,0.00,,,0.00,meteohub,2013-04-17 22:00:00,
2013-04-17 17:05:00,85.3,75.2,29.92,SE,130,3.0,13.0,72,0.00,,,0.00,meteohub,2013-04-17 22:05:00,
2013-04-17 17:10:00,85.6,75.2,29.91,SE,135,5.0,13.0,71,0.00,,,0.00,meteohub,2013-04-17 22:10:00,
2013-04-17 17:15:00,85.8,74.8,29.91,SSE,148,2.0,11.0,70,0.00,,,0.00,meteohub,2013-04-17 22:15:00,
2013-04-17 17:20:00,86.0,75.6,29.91,SE,138,3.0,14.0,71,0.00,,,0.00,meteohub,2013-04-17 22:20:00,
2013-04-17 17:25:00,85.5,74.5,29.91,ENE,71,3.0,14.0,70,0.00,,,0.00,meteohub,2013-04-17 22:25:00,
2013-04-17 17:30:00,84.9,74.1,29.91,SE,130,7.0,15.0,70,0.00,,,0.00,meteohub,2013-04-17 22:30:00,
2013-04-17 17:35:00,84.6,74.1,29.91,SE,127,8.0,15.0,71,0.00,,,0.00,meteohub,2013-04-17 22:35:00,
2013-04-17 17:40:00,84.7,74.7,29.91,South,189,4.0,15.0,72,0.00,,,0.00,meteohub,2013-04-17 22:40:00,
2013-04-17 17:45:00,84.9,75.2,29.90,East,100,3.0,15.0,73,0.00,,,0.00,meteohub,2013-04-17 22:45:00,
2013-04-17 17:50:00,85.1,75.0,29.90,SSE,152,9.0,15.0,72,0.00,,,0.00,meteohub,2013-04-17 22:50:00,
2013-04-17 17:55:00,84.7,75.2,29.90,SSE,151,2.0,11.0,73,0.00,,,0.00,meteohub,2013-04-17 22:55:00,
2013-04-17 18:00:00,84.6,75.0,29.90,SE,143,9.0,11.0,73,0.00,,,0.00,meteohub,2013-04-17 23:00:00,
2013-04-17 18:05:00,84.2,74.7,29.90,SSE,158,0.0,14.0,73,0.00,,,0.00,meteohub,2013-04-17 23:05:00,
2013-04-17 18:10:00,83.7,74.5,29.91,East,99,5.0,14.0,74,0.00,,,0.00,meteohub,2013-04-17 23:10:00,
2013-04-17 18:15:00,83.1,74.3,29.90,SE,146,2.0,14.0,75,0.00,,,0.00,meteohub,2013-04-17 23:15:00,
2013-04-17 18:20:00,82.8,74.5,29.90,SE,140,5.0,12.0,76,0.00,,,0.00,meteohub,2013-04-17 23:20:00,
2013-04-17 18:25:00,82.6,74.3,29.90,SE,136,9.0,11.0,76,0.00,,,0.00,meteohub,2013-04-17 23:25:00,
2013-04-17 18:30:00,82.6,74.3,29.90,SSE,147,2.0,11.0,76,0.00,,,0.00,meteohub,2013-04-17 23:30:00,
2013-04-17 18:35:00,82.6,74.3,29.90,ESE,122,3.0,11.0,76,0.00,,,0.00,meteohub,2013-04-17 23:35:00,
2013-04-17 18:40:00,82.4,74.1,29.90,ESE,121,7.0,11.0,76,0.00,,,0.00,meteohub,2013-04-17 23:40:00,
2013-04-17 18:45:00,82.2,73.6,29.90,SE,143,6.0,13.0,75,0.00,,,0.00,meteohub,2013-04-17 23:45:00,
2013-04-17 18:50:00,82.0,73.8,29.90,South,176,7.0,13.0,76,0.00,,,0.00,meteohub,2013-04-17 23:50:00,
2013-04-17 18:56:00,81.9,73.6,29.90,SSE,159,5.0,13.0,76,0.00,,,0.00,meteohub,2013-04-17 23:56:00,
2013-04-17 19:00:00,81.7,73.4,29.91,SSE,148,8.0,12.0,76,0.00,,,0.00,meteohub,2013-04-18 00:00:00,
2013-04-17 19:06:00,81.5,73.6,29.91,ESE,119,2.0,12.0,77,0.00,,,0.00,meteohub,2013-04-18 00:06:00,
2013-04-17 19:10:00,81.1,73.6,29.91,SSE,164,4.0,10.0,78,0.00,,,0.00,meteohub,2013-04-18 00:10:00,
2013-04-17 19:16:00,81.0,73.4,29.91,SE,142,0.0,10.0,78,0.00,,,0.00,meteohub,2013-04-18 00:16:00,
2013-04-17 19:20:00,80.8,73.2,29.91,East,84,1.0,10.0,78,0.00,,,0.00,meteohub,2013-04-18 00:20:00,
2013-04-17 19:25:00,80.4,73.2,29.91,ESE,119,3.0,9.0,79,0.00,,,0.00,meteohub,2013-04-18 00:25:00,
2013-04-17 19:31:00,80.2,73.0,29.91,SE,131,1.0,8.0,79,0.00,,,0.00,meteohub,2013-04-18 00:31:00,
2013-04-17 19:36:00,79.9,73.2,29.91,SE,126,4.0,4.0,80,0.00,,,0.00,meteohub,2013-04-18 00:36:00,
2013-04-17 19:41:00,79.5,72.9,29.91,SE,137,3.0,8.0,80,0.00,,,0.00,meteohub,2013-04-18 00:41:00,
2013-04-17 19:46:00,79.5,72.9,29.91,SSE,165,3.0,8.0,80,0.00,,,0.00,meteohub,2013-04-18 00:46:00,
2013-04-17 19:51:00,79.2,72.9,29.91,SE,138,5.0,8.0,81,0.00,,,0.00,meteohub,2013-04-18 00:51:00,
2013-04-17 19:56:00,79.2,72.9,29.91,SSE,155,0.0,6.0,81,0.00,,,0.00,meteohub,2013-04-18 00:56:00,
2013-04-17 20:01:00,79.0,72.7,29.91,ESE,105,3.0,6.0,81,0.00,,,0.00,meteohub,2013-04-18 01:01:00,
2013-04-17 20:06:00,78.8,72.5,29.91,SSE,147,1.0,8.0,81,0.00,,,0.00,meteohub,2013-04-18 01:06:00,
2013-04-17 20:11:00,78.8,72.5,29.91,ESE,117,1.0,12.0,81,0.00,,,0.00,meteohub,2013-04-18 01:11:00,
2013-04-17 20:16:00,78.6,72.3,29.92,ESE,112,5.0,12.0,81,0.00,,,0.00,meteohub,2013-04-18 01:16:00,
2013-04-17 20:21:00,78.6,72.7,29.92,ESE,113,0.0,12.0,82,0.00,,,0.00,meteohub,2013-04-18 01:21:00,
2013-04-17 20:26:00,78.4,72.5,29.92,SE,136,1.0,7.0,82,0.00,,,0.00,meteohub,2013-04-18 01:26:00,
2013-04-17 20:31:00,78.4,72.9,29.92,SE,137,0.0,7.0,83,0.00,,,0.00,meteohub,2013-04-18 01:31:00,
2013-04-17 20:36:00,78.3,72.7,29.92,ESE,109,2.0,7.0,83,0.00,,,0.00,meteohub,2013-04-18 01:36:00,
2013-04-17 20:41:00,78.1,72.9,29.92,SE,142,1.0,6.0,84,0.00,,,0.00,meteohub,2013-04-18 01:41:00,
2013-04-17 20:46:00,77.7,72.5,29.92,SE,136,2.0,8.0,84,0.00,,,0.00,meteohub,2013-04-18 01:46:00,
2013-04-17 20:51:00,77.5,72.7,29.91,SE,133,0.0,8.0,85,0.00,,,0.00,meteohub,2013-04-18 01:51:00,
2013-04-17 20:56:00,77.4,72.5,29.91,SSE,148,1.0,7.0,85,0.00,,,0.00,meteohub,2013-04-18 01:56:00,
2013-04-17 21:02:00,77.2,72.7,29.91,SE,124,4.0,6.0,86,0.00,,,0.00,meteohub,2013-04-18 02:02:00,
2013-04-17 21:07:00,77.2,72.7,29.91,SSE,152,2.0,6.0,86,0.00,,,0.00,meteohub,2013-04-18 02:07:00,
2013-04-17 21:12:00,77.0,72.9,29.91,ESE,114,4.0,8.0,87,0.00,,,0.00,meteohub,2013-04-18 02:12:00,
2013-04-17 21:17:00,76.8,72.7,29.92,SE,124,2.0,8.0,87,0.00,,,0.00,meteohub,2013-04-18 02:17:00,
2013-04-17 21:22:00,76.8,72.7,29.92,ESE,123,3.0,7.0,87,0.00,,,0.00,meteohub,2013-04-18 02:22:00,
2013-04-17 21:27:00,76.8,73.0,29.91,East,91,2.0,7.0,88,0.00,,,0.00,meteohub,2013-04-18 02:27:00,
2013-04-17 21:32:00,76.8,73.0,29.91,East,84,2.0,8.0,88,0.00,,,0.00,meteohub,2013-04-18 02:32:00,
2013-04-17 21:37:00,76.8,73.0,29.91,South,180,5.0,8.0,88,0.00,,,0.00,meteohub,2013-04-18 02:37:00,
2013-04-17 21:42:00,76.8,73.0,29.91,East,92,3.0,13.0,88,0.00,,,0.00,meteohub,2013-04-18 02:42:00,
2013-04-17 21:47:00,76.8,73.0,29.91,ESE,116,3.0,13.0,88,0.00,,,0.00,meteohub,2013-04-18 02:47:00,
2013-04-17 21:52:00,76.6,72.9,29.91,ESE,122,4.0,13.0,88,0.00,,,0.00,meteohub,2013-04-18 02:52:00,
2013-04-17 21:57:00,76.6,72.9,29.91,SE,127,2.0,13.0,88,0.00,,,0.00,meteohub,2013-04-18 02:57:00,
2013-04-17 22:02:00,76.5,73.0,29.91,ESE,109,4.0,13.0,89,0.00,,,0.00,meteohub,2013-04-18 03:02:00,
2013-04-17 22:07:00,76.5,73.0,29.91,SE,125,7.0,11.0,89,0.00,,,0.00,meteohub,2013-04-18 03:07:00,
2013-04-17 22:12:00,76.5,73.2,29.91,SSE,162,10.0,11.0,90,0.00,,,0.00,meteohub,2013-04-18 03:12:00,
2013-04-17 22:17:00,76.3,73.4,29.92,ENE,63,4.0,11.0,91,0.00,,,0.00,meteohub,2013-04-18 03:17:00,
2013-04-17 22:22:00,76.3,73.4,29.91,ESE,117,3.0,11.0,91,0.00,,,0.00,meteohub,2013-04-18 03:22:00,
2013-04-17 22:27:00,76.3,73.4,29.91,SE,132,1.0,13.0,91,0.00,,,0.00,meteohub,2013-04-18 03:27:00,
2013-04-17 22:32:00,76.1,73.2,29.91,East,86,5.0,13.0,91,0.00,,,0.00,meteohub,2013-04-18 03:32:00,
2013-04-17 22:37:00,76.1,72.9,29.91,SSE,156,3.0,13.0,90,0.00,,,0.00,meteohub,2013-04-18 03:37:00,
2013-04-17 22:42:00,76.1,72.9,29.91,SE,144,4.0,13.0,90,0.00,,,0.00,meteohub,2013-04-18 03:42:00,
2013-04-17 22:47:00,75.9,72.9,29.91,SE,142,7.0,13.0,90,0.00,,,0.00,meteohub,2013-04-18 03:47:00,
2013-04-17 22:52:00,75.9,72.9,29.91,East,83,3.0,16.0,90,0.00,,,0.00,meteohub,2013-04-18 03:52:00,
2013-04-17 22:57:00,75.9,72.9,29.91,ESE,114,5.0,16.0,90,0.00,,,0.00,meteohub,2013-04-18 03:57:00,
2013-04-17 23:01:00,75.9,72.9,29.90,ESE,123,4.0,16.0,90,0.00,,,0.00,meteohub,2013-04-18 04:01:00,
2013-04-17 23:06:00,75.7,72.7,29.90,SSE,147,6.0,14.0,90,0.00,,,0.00,meteohub,2013-04-18 04:06:00,
2013-04-17 23:11:00,75.7,72.7,29.91,ENE,66,7.0,15.0,90,0.00,,,0.00,meteohub,2013-04-18 04:11:00,
2013-04-17 23:16:00,75.7,72.7,29.90,SE,126,6.0,15.0,90,0.00,,,0.00,meteohub,2013-04-18 04:16:00,
2013-04-17 23:22:00,75.6,72.5,29.90,East,93,3.0,15.0,90,0.00,,,0.00,meteohub,2013-04-18 04:22:00,
2013-04-17 23:27:00,75.6,72.5,29.90,ESE,121,8.0,12.0,90,0.00,,,0.00,meteohub,2013-04-18 04:27:00,
2013-04-17 23:32:00,75.4,72.3,29.90,SE,124,4.0,13.0,90,0.00,,,0.00,meteohub,2013-04-18 04:32:00,
2013-04-17 23:37:00,75.4,72.5,29.90,East,80,6.0,13.0,91,0.00,,,0.00,meteohub,2013-04-18 04:37:00,
2013-04-17 23:42:00,75.4,72.5,29.90,East,80,5.0,14.0,91,0.00,,,0.00,meteohub,2013-04-18 04:42:00,
2013-04-17 23:47:00,75.2,72.3,29.89,SSE,158,1.0,14.0,91,0.00,,,0.00,meteohub,2013-04-18 04:47:00,
2013-04-17 23:52:00,75.0,72.1,29.89,South,180,2.0,14.0,91,0.00,,,0.00,meteohub,2013-04-18 04:52:00,
2013-04-17 23:57:00,75.0,72.1,29.89,SSE,162,8.0,14.0,91,0.00,,,0.00,meteohub,2013-04-18 04:57:00,